Regional Weather Roundup
Issued by NWS Grand Forks, ND

Home | Current Version | Previous Version | Graphics & Text | Print | Product List | Glossary On
Versions: 1 2 3 4 5 6 7 8 9 10 11 12 13 14 15 16 17 18 19 20 21 22 23 24 25 26 27 28 29 30 31 32 33 34 35 36 37 38 39 40 41 42 43 44 45 46 47 48 49 50
675
ASUS43 KFGF 010031
RWRFGF
PRAIRIE TO PINES  WEATHER ROUNDUP
NATIONAL WEATHER SERVICE EASTERN NORTH DAKOTA/GRAND FORKS ND
700 PM CDT SAT APR 30 2016

 **SATELLITE DATA USED TO AUGMENT SKY COVER AT AUTOMATED STATIONS**
 *****  WEATHER ACROSS EASTERN NORTH DAKOTA  *****

CITY           SKY/WX    TMP DP  RH WIND       PRES   REMARKS
GRAND FORKS    MOSUNNY   58  27  30 NE17      30.22R
6HR MIN TEMP:  58; 6HR MAX TEMP:  62;

GRAND FRKS AFB SUNNY     58  26  28 E13G24    30.22S
DEVILS LAKE    SUNNY     59  29  31 NE16      30.23S
6HR MIN TEMP:  56; 6HR MAX TEMP:  60;

FARGO          CLOUDY    61  25  25 NE20G30   30.14R
WAHPETON ARPT  PTCLDY    59  27  29 NE13G18   30.12R
$$

 ***** WEATHER ACROSS CENTRAL AND WESTERN NORTH DAKOTA  *****

CITY           SKY/WX    TMP DP  RH WIND       PRES   REMARKS
BISMARCK       MOSUNNY   58  29  33 NE12G22   30.20R
6HR MIN TEMP:  57; 6HR MAX TEMP:  61;

MINOT          SUNNY     65  24  21 NE15G21   30.24R
6HR MIN TEMP:  63; 6HR MAX TEMP:  67;

JAMESTOWN      CLOUDY    58  23  26 NE21      30.18R
6HR MIN TEMP:  57; 6HR MAX TEMP:  62;

MINOT AFB      SUNNY     62  27  26 E10       30.23R
GARRISON         N/A     59  24  26 NE9       30.23R
WILLISTON      MOSUNNY   63  29  27 E8        30.25S
6HR MIN TEMP:  59; 6HR MAX TEMP:  64;

DICKINSON      MOSUNNY   53  27  36 NE14      30.21R
6HR MIN TEMP:  53; 6HR MAX TEMP:  58;

HETTINGER      MOSUNNY   56  26  31 NE18      30.20R
6HR MIN TEMP:  53; 6HR MAX TEMP:  58;

$$

 *****  OTHER AIRPORT OBSERVATIONS IN OUR AREA  *****

CITY           SKY/WX    TMP DP  RH WIND       PRES   REMARKS
WALHALLA       FAIR      59  28  31 E16       30.25S
GRAFTON AIRPOR FAIR      59  28  31 E18       30.24S
VALLEY CITY AR FAIR      55  27  33 E15G24    30.19S
CANDO          FAIR      59  25  27 NE13G24   30.26S
CAVALIER APRT  FAIR      59  27  29 NE13G21   30.25R
GWINNER        FAIR      59  30  33 NE17      30.13S
SHEYENNE NWR     N/A     61  27  27 E13       29.95
ROLLA          FAIR      57  25  28 NE16      30.27S
 ***** THE ABOVE OBSERVATIONS ARE NON NWS ARE NOT QUALITY
       CONTROLLED AND MAY MIS-REPORT RAIN FOR SNOW...
$$

  *****  WEATHER ACROSS NORTHERN MINNESOTA  *****

CITY           SKY/WX    TMP DP  RH WIND       PRES   REMARKS
FLAG ISLAND    SUNNY     55  27  33 NE9       30.25S
WARROAD        SUNNY     48  34  57 NE7       30.27R
ROSEAU         SUNNY     55  32  41 E16       30.25S
HALLOCK        SUNNY     61  21  21 E10       30.24R
THF RVR FALLS  SUNNY     57  25  28 NE15G23   30.22S
6HR MIN TEMP:  55; 6HR MAX TEMP:  57;

BAUDETTE       SUNNY     56  25  30 NE13      30.23R
6HR MIN TEMP:  55; 6HR MAX TEMP:  59;

WASKISH        SUNNY     55  28  35 NE13G18   30.22R
CROOKSTON      SUNNY     57  28  33 NE15G22   30.21S
STEPHEN NDAWN    N/A     57  27  30 E17         N/A
GREENBUSH NDAW   N/A     55  28  35 E12         N/A
$$
  *****  WEATHER ACROSS CENTRAL AND WEST MINNESOTA  *****

CITY           SKY/WX    TMP DP  RH WIND       PRES   REMARKS
FOSSTON        CLOUDY    55  27  33 NE16G22   30.19S
BEMIDJI        SUNNY     55  29  36 E12       30.17S
PARK RAPIDS    SUNNY     57  26  30 NE14G24   30.14R
6HR MIN TEMP:  55; 6HR MAX TEMP:  60;

ELBOW LAKE     FAIR      55  33  42 E12G22    30.12R
WADENA         MOSUNNY   54  30  40 E12       30.13R
DETROIT LAKES  CLOUDY    55  30  38 E12       30.16R
MOORHEAD       CLOUDY    61  28  29 E14       30.15R
FERGUS FALLS   MOSUNNY  N/A N/A N/A E12G21    30.09S
MORRIS MN      CLOUDY    55  34  44 E20       30.10R
STAPLES        CLOUDY    54  27  35 E9        30.14R
$$
  *****  WEATHER ELSEWHERE ACROSS MINNESOTA  *****

CITY           SKY/WX    TMP DP  RH WIND       PRES   REMARKS
DULUTH         CLOUDY    45  27  49 E16       30.21S
6HR MIN TEMP:  45; 6HR MAX TEMP:  50;

INTRNTL FALLS  SUNNY     55  25  31 NE10      30.23R
6HR MIN TEMP:  52; 6HR MAX TEMP:  57;

ELY            SUNNY     48  27  43 SE7       30.23R
CLOQUET        CLOUDY    45  25  45 NE15G29   30.21R
WHEATON        MOSUNNY   59  34  38 E14G23    30.12R
BRAINERD       CLOUDY    51  28  41 NE14G22   30.15R
6HR MIN TEMP:  51; 6HR MAX TEMP:  57;

HIBBING        SUNNY     48  28  46 SE14      30.21R
6HR MIN TEMP:  48; 6HR MAX TEMP:  56;

ALEXANDRIA     CLOUDY    53  29  39 E16G28    30.12R
6HR MIN TEMP:  53; 6HR MAX TEMP:  57;

SAINT CLOUD    MOSUNNY   54  30  40 NE13G29   30.09R
6HR MIN TEMP:  53; 6HR MAX TEMP:  58;

MINNEAPOLIS    CLOUDY    55  35  47 NE14      30.04R
6HR MIN TEMP:  55; 6HR MAX TEMP:  58;

$$

  *****  WEATHER ACROSS SOUTH DAKOTA  *****

CITY           SKY/WX    TMP DP  RH WIND       PRES   REMARKS
SIOUX FALLS    LGT RAIN  44  40  85 NE18G26   29.99R
6HR MIN TEMP:  43; 6HR MAX TEMP:  45; 6HR PCP:  0.27;

BROOKINGS      LGT RAIN  48  38  68 E17G30    30.03R
WATERTOWN      CLOUDY    53  36  52 NE13G23   30.05R
6HR MIN TEMP:  50; 6HR MAX TEMP:  53;

HURON          CLOUDY    51  37  58 NE12      30.05R
6HR MIN TEMP:  50; 6HR MAX TEMP:  52;

SISSETON         N/A     59  31  34 E18       30.08R
ABERDEEN       PTSUNNY   58  31  35 NE17G26   30.10R
6HR MIN TEMP:  55; 6HR MAX TEMP:  60;

MITCHELL       LGT RAIN  45  43  93 NE12      30.04R
PIERRE         CLOUDY    53  36  52 NE20      30.06R
6HR MIN TEMP:  52; 6HR MAX TEMP:  54;

MOBRIDGE       CLOUDY    58  30  34 NE18G24   30.11R
RAPID CITY     CLOUDY    50  31  48 NE20G29   30.12R
6HR MIN TEMP:  45; 6HR MAX TEMP:  51;

$$

  *****  SOME WEATHER IN NEARBY STATES *****

CITY           SKY/WX    TMP DP  RH WIND       PRES   REMARKS
GLASGOW MT     MOSUNNY   62  28  27 SE9G17    30.26R
6HR MIN TEMP:  56; 6HR MAX TEMP:  64;

GREAT FALLS MT CLOUDY    53  35  50 E9        30.26R
6HR MIN TEMP:  50; 6HR MAX TEMP:  53;

CHEYENNE WY    LGT SNOW  32  29  88 N21G29    30.08R FOG     WCI  20
6HR MIN TEMP:  31; 6HR MAX TEMP:  33; 6HR PCP:  0.01;

SCOTTSBLUFF NE LGT RAIN  38  32  79 N15       30.09R
6HR MIN TEMP:  37; 6HR MAX TEMP:  39; 6HR PCP:  0.14;

OMAHA NE       CLOUDY    50  48  93 E12G18    29.81R FOG
6HR MIN TEMP:  49; 6HR MAX TEMP:  51; 6HR PCP: TRACE;

DES MOINES IA  DRIZZLE   50  46  86 E12G20    29.84R FOG
6HR MIN TEMP:  49; 6HR MAX TEMP:  51; 6HR PCP:  0.06;

DAVENPORT IA   CLOUDY    46  43  89 NE20G30   29.88S
6HR MIN TEMP:  46; 6HR MAX TEMP:  49; 6HR PCP:  0.60;

CHICAGO IL     LGT RAIN  45  43  93 NE17G23   29.92F FOG
6HR MIN TEMP:  44; 6HR MAX TEMP:  45; 6HR PCP:  0.40;

EAU CLAIRE WI  CLOUDY    55  34  45 SE7       30.04S
6HR MIN TEMP:  55; 6HR MAX TEMP:  59;

LA CROSSE WI   LGT RAIN  47  37  68 NE16G24   30.04S
6HR MIN TEMP:  47; 6HR MAX TEMP:  53; 6HR PCP:  0.25;

$$

  *****  SOME NATIONAL WEATHER *****

CITY           SKY/WX    TMP DP  RH WIND       PRES   REMARKS
LA GUARDIA NY  PTCLDY    53  39  59 S10       30.24R
6HR MIN TEMP:  53; 6HR MAX TEMP:  63;

RALEIGH NC     CLOUDY    61  56  83 E12       30.14R
6HR MIN TEMP:  61; 6HR MAX TEMP:  65;

ATLANTA GA     TSTM      69  64  84 CALM      29.95R
6HR MIN TEMP:  68; 6HR MAX TEMP:  87; 6HR PCP:  0.49;

NEW ORLEANS LA CLOUDY    71  66  84 SE9       29.84R
6HR MIN TEMP:  70; 6HR MAX TEMP:  80; 6HR PCP:  2.07;

OKLAHOMA CITY  SUNNY     69  45  41 N15G24    29.80R
6HR MIN TEMP:  63; 6HR MAX TEMP:  71;

ALBUQUERQUE NM PTSUNNY   62  29  28 NW8       29.81R
6HR MIN TEMP:  58; 6HR MAX TEMP:  64; 6HR PCP: TRACE;

SALT LAKE CITY CLOUDY    61  27  27 NE18      29.92R
6HR MIN TEMP:  57; 6HR MAX TEMP:  62;

LOS ANGELES CA MOSUNNY   62  51  67 W13       29.80S
6HR MIN TEMP:  62; 6HR MAX TEMP:  65;

BOISE ID       SUNNY    C1F1C2F2C3F3C4F4C5F5C6F6C7F7C8F8C9F9CaFaCbFbCcFcCd!



USA.gov is the U.S. government's official web portal to all federal, state and local government web resources and services.